Location: Ostrava
(49.8330°N, 18.2830°E)
Time: 23:10:20
(UTC+01:00)

Transit 2A - All Passes

Search period start: 27 March 2015 00:00
Search period end: 06 April 2015 01:00
Orbit: 592 x 970 km, 66.7° (Epoch: 26 March)

Date Brightness Start Highest point End Pass type
(mag) Time Alt. Az. Time Alt. Az. Time Alt. Az.
27 Mar - 12:57:26 10° S 13:02:45 34° ESE 13:08:26 10° NE daylight
27 Mar - 14:39:47 10° SW 14:45:50 60° NW 14:52:12 10° NNE daylight
27 Mar - 16:25:29 10° WNW 16:30:30 23° NNW 16:35:30 10° NNE daylight
27 Mar - 18:12:04 10° NW 18:16:07 17° N 18:20:10 10° NE daylight
27 Mar - 19:56:23 10° NNW 20:01:38 26° NNE 20:06:47 10° E visible
27 Mar - 21:39:41 10° NW 21:46:04 74° NE 21:52:02 10° SE visible
27 Mar - 23:23:46 10° NW 23:28:52 26° WSW 23:33:34 10° SSW visible
28 Mar - 12:24:24 10° SSE 12:29:11 26° ESE 12:34:19 10° NE daylight
28 Mar - 14:05:52 10° SW 14:11:58 76° NW 14:18:26 10° NE daylight
28 Mar - 15:51:05 10° W 15:56:22 27° NNW 16:01:41 10° NNE daylight
28 Mar - 17:37:47 10° NW 17:41:52 17° N 17:45:55 10° NE daylight
28 Mar - 19:22:34 10° NNW 19:27:30 23° NNE 19:32:22 10° ENE visible
28 Mar - 21:05:54 10° NNW 21:12:12 58° NE 21:18:06 10° SE visible
28 Mar - 22:49:40 10° NW 22:55:18 35° WSW 23:00:30 10° S visible
29 Mar - 12:51:40 10° SSE 12:55:39 19° ESE 13:00:00 10° ENE daylight
29 Mar - 14:32:04 10° SSW 14:38:10 85° SE 14:44:38 10° NE daylight
29 Mar - 16:16:44 10° W 16:22:16 31° NNW 16:27:54 10° NNE daylight
29 Mar - 18:03:26 10° NW 18:07:38 18° N 18:11:48 10° NNE daylight
29 Mar - 19:48:41 10° NNW 19:53:20 21° NNE 19:57:55 10° ENE visible
29 Mar - 21:32:08 10° NNW 21:38:16 47° NE 21:44:04 10° ESE visible
29 Mar - 23:15:41 10° NW 23:21:41 47° WSW 23:27:14 10° S visible
30 Mar - 12:19:27 10° SE 12:22:10 14° ESE 12:25:16 10° ENE daylight
30 Mar - 13:58:25 10° SSW 14:04:25 66° ESE 14:10:47 10° NE daylight
30 Mar - 15:42:28 10° WSW 15:48:13 37° NW 15:54:08 10° NNE daylight
30 Mar - 17:29:00 10° NW 17:33:24 19° NNW 17:37:45 10° NNE daylight
30 Mar - 19:14:45 10° NNW 19:19:07 19° NNE 19:23:28 10° ENE daylight
30 Mar - 20:58:22 10° NNW 21:04:17 38° NE 21:09:54 10° ESE visible
30 Mar - 22:41:46 10° NW 22:48:01 62° WSW 22:53:46 10° SSE visible
31 Mar - 00:27:45 10° WNW 00:30:09 12° W 00:32:09 10° WSW visible
31 Mar - 13:24:56 10° S 13:30:44 50° ESE 13:36:54 10° NE daylight
31 Mar - 15:08:17 10° WSW 15:14:14 45° NW 15:20:23 10° NNE daylight
31 Mar - 16:54:33 10° WNW 16:59:12 20° NNW 17:03:49 10° NNE daylight
31 Mar - 18:40:43 10° NNW 18:44:54 18° N 18:49:04 10° NE daylight
31 Mar - 20:24:36 10° NNW 20:30:14 32° NNE 20:35:39 10° E visible
31 Mar - 22:07:56 10° NW 22:14:17 81° WSW 22:20:09 10° SSE visible
31 Mar - 23:52:46 10° WNW 23:56:41 17° WSW 00:00:14 10° SW visible
01 Apr - 12:51:37 10° S 12:57:05 38° ESE 13:02:56 10° NE daylight
01 Apr - 14:34:13 10° SW 14:40:17 56° NW 14:46:37 10° NNE daylight
01 Apr - 16:20:05 10° WNW 16:25:01 23° NNW 16:29:56 10° NNE daylight
01 Apr - 18:06:36 10° NW 18:10:39 17° N 18:14:42 10° NE daylight
01 Apr - 19:50:49 10° NNW 19:56:09 27° NNE 20:01:19 10° E visible
01 Apr - 21:34:07 10° NW 21:40:29 79° NE 21:46:24 10° SE visible
01 Apr - 23:18:21 10° WNW 23:23:11 24° WSW 23:27:36 10° SSW visible
02 Apr - 12:18:29 10° SSE 12:23:30 28° ESE 12:28:51 10° NE daylight
02 Apr - 14:00:15 10° SW 14:06:24 71° NW 14:12:51 10° NE daylight
02 Apr - 15:45:39 10° W 15:50:52 26° NNW 15:56:06 10° NNE daylight
02 Apr - 17:32:21 10° NW 17:36:25 17° N 17:40:26 10° NE daylight
02 Apr - 19:17:00 10° NNW 19:22:01 24° NNE 19:26:55 10° ENE daylight
02 Apr - 21:00:19 10° NNW 21:06:38 62° NE 21:12:30 10° SE visible
02 Apr - 22:44:11 10° NW 22:49:38 32° WSW 22:54:37 10° S visible
03 Apr - 11:45:38 10° SSE 11:49:57 21° ESE 11:54:37 10° ENE daylight
03 Apr - 13:26:25 10° SW 13:32:34 89° WNW 13:39:03 10° NE daylight
03 Apr - 15:11:16 10° W 15:16:46 30° NNW 15:22:19 10° NNE daylight
03 Apr - 16:58:01 10° NW 17:02:10 17° N 17:06:16 10° NE daylight
03 Apr - 18:43:08 10° NNW 18:47:51 21° NNE 18:52:29 10° ENE daylight
03 Apr - 20:26:33 10° NNW 20:32:43 50° NE 20:38:29 10° ESE visible
03 Apr - 22:10:10 10° NW 22:16:01 42° WSW 22:21:25 10° S visible
04 Apr - 11:13:12 10° SE 11:16:27 15° ESE 11:20:04 10° ENE daylight
04 Apr - 12:52:42 10° SSW 12:58:48 72° ESE 13:05:13 10° NE daylight
04 Apr - 14:36:57 10° WSW 14:42:42 35° NW 14:48:32 10° NNE daylight
04 Apr - 16:23:36 10° NW 16:27:56 18° N 16:32:12 10° NNE daylight
04 Apr - 18:09:12 10° NNW 18:13:39 19° NNE 18:18:01 10° ENE daylight
04 Apr - 19:52:47 10° NNW 19:58:44 40° NE 20:04:22 10° ESE visible
04 Apr - 21:36:14 10° NW 21:42:22 57° WSW 21:48:00 10° SSE visible
04 Apr - 23:23:09 10° W 23:24:25 10° W 23:25:17 10° WSW visible
05 Apr - 10:41:58 10° ESE 10:42:59 11° E 10:44:26 10° E daylight
05 Apr - 12:19:10 10° SSW 12:25:05 55° ESE 12:31:20 10° NE daylight
05 Apr - 14:02:45 10° WSW 14:08:41 43° NW 14:14:46 10° NNE daylight
05 Apr - 15:49:08 10° WNW 15:53:43 20° NNW 15:58:14 10° NNE daylight
05 Apr - 17:35:12 10° NNW 17:39:25 18° N 17:43:36 10° NE daylight
05 Apr - 19:19:00 10° NNW 19:24:42 33° NE 19:30:09 10° E daylight
05 Apr - 21:02:21 10° NW 21:08:39 75° WSW 21:14:26 10° SSE visible
05 Apr - 22:47:29 10° WNW 22:50:58 15° WSW 22:54:03 10° SW visible
